Location: Choszczno
(53.1685°N, 15.4183°E)
Time: 23:29:52
(UTC+02:00)

ISS - Visible Passes

Search period start: 22 September 2018 00:00
Search period end: 02 October 2018 00:00
Orbit: 403 x 408 km, 51.6° (Epoch: 23 September)

Date Brightness Start Highest point End Pass type
(mag) Time Alt. Az. Time Alt. Az. Time Alt. Az.
22 Sep -1.4 20:28:33 10° S 20:28:53 11° S 20:28:53 11° S visible
23 Sep -1.5 21:11:31 10° SW 21:12:21 16° SSW 21:12:21 16° SSW visible
24 Sep -2.5 20:20:04 10° SSW 20:22:47 23° SSE 20:22:54 23° SE visible
25 Sep -1.9 19:28:55 10° S 19:31:05 16° SE 19:33:15 10° ESE visible
25 Sep -2.6 21:03:52 10° WSW 21:06:00 33° SW 21:06:00 33° SW visible
26 Sep -3.1 20:12:10 10° SW 20:15:14 36° SSE 20:16:15 28° ESE visible
26 Sep -1.0 21:48:14 10° W 21:48:56 15° WSW 21:48:56 15° WSW visible
27 Sep -2.5 19:20:37 10° SSW 19:23:27 27° SSE 19:26:17 10° E visible
27 Sep -3.3 20:56:21 10° WSW 20:59:06 52° SW 20:59:06 52° SW visible
28 Sep -3.5 20:04:31 10° WSW 20:07:44 52° SSE 20:09:12 28° ESE visible
28 Sep -1.2 21:40:49 10° W 21:41:52 19° W 21:41:52 19° W visible
29 Sep -3.1 19:12:44 10° SW 19:15:52 41° SSE 19:19:00 10° E visible
29 Sep -3.6 20:48:53 10° W 20:51:54 64° SW 20:51:54 64° SW visible
30 Sep -3.7 19:56:57 10° WSW 20:00:14 65° S 20:01:54 26° E visible
30 Sep -1.3 21:33:22 10° W 21:34:34 20° W 21:34:34 20° W visible
01 Oct -3.7 20:41:24 10° W 20:44:32 62° SSW 20:44:32 62° SSW visible
